Location: Unspecified
(43.3830°N, 0.0000°E)
Time: 17:29:46
(UTC+00:00)

Vanguard 2 - Pass Details

Date: 22 June 2019
Orbit: 553 x 2938 km, 32.9° (Epoch: 17 August)

Event Time Altitude Azimuth Distance (km) Brightness Sun altitude
Rises 07:52:17 0° 221° (SW) 3,036 10.3 35.6°
Reaches altitude 10° 07:54:45 10° 205° (SSW) 2,316 9.9 36.0°
Maximum altitude 07:59:01 23° 153° (SSE) 1,924 10.2 36.8°
Drops below altitude 10° 08:04:55 10° 104° (ESE) 3,335 12.0 37.9°
Sets 08:09:19 0° 93° (E) 4,777 12.5 38.7°
